| time (UTC) | temp C | wind direction | speed KPH | gust KPH | rain 1hr cm | rain 24hr cm | rain mn cm | humidity % | barometer mb |
| 20260903054214 | 11 | 24 | 0.0 | 1.6 | 0.00 | 0.00 | 0.00 | 83 | 1025.2 |
| 20260903053711 | 11 | 24 | 0.0 | 1.6 | 0.00 | 0.00 | 0.00 | 83 | 1025.1 |
| 20260903053232 | 11 | 151 | 0.0 | 1.6 | 0.00 | 0.00 | 0.00 | 82 | 1025.2 |
| 20260903052715 | 11 | 151 | 0.0 | 1.6 | 0.00 | 0.00 | 0.00 | 82 | 1025.1 |
| 20260903052229 | 11 | 151 | 0.0 | 1.6 | 0.00 | 0.00 | 0.00 | 82 | 1025.1 |
| 20260903051723 | 11 | 151 | 0.0 | 3.2 | 0.00 | 0.00 | 0.00 | 82 | 1025.0 |
| 20260903051241 | 11 | 151 | 0.0 | 3.2 | 0.00 | 0.00 | 0.00 | 81 | 1025.0 |
| 20260903050725 | 11 | 151 | 0.0 | 3.2 | 0.00 | 0.00 | 0.00 | 81 | 1025.0 |
| 20260903050230 | 11 | 151 | 0.0 | 3.2 | 0.00 | 0.00 | 0.00 | 81 | 1025.0 |
| 20260903045713 | 11 | 151 | 0.0 | 8.0 | 0.00 | 0.00 | 0.00 | 82 | 1024.9 |
| 20260903044716 | 11 | 151 | 1.6 | 8.0 | 0.00 | 0.00 | 0.00 | 82 | 1024.8 |
| 20260903044214 | 11 | 327 | 1.6 | 3.2 | 0.00 | 0.00 | 0.00 | 82 | 1024.8 |
| 20260903043723 | 11 | 36 | 0.0 | 3.2 | 0.00 | 0.00 | 0.00 | 82 | 1024.8 |
| 20260903043220 | 11 | 36 | 0.0 | 3.2 | 0.00 | 0.00 | 0.00 | 82 | 1024.8 |
| 20260903042727 | 11 | 27 | 0.0 | 3.2 | 0.00 | 0.00 | 0.00 | 82 | 1024.8 |
| 20260903041724 | 11 | 22 | 1.6 | 4.8 | 0.00 | 0.00 | 0.00 | 82 | 1024.7 |
| 20260903041221 | 11 | 15 | 0.0 | 6.4 | 0.00 | 0.00 | 0.00 | 82 | 1024.8 |
| 20260903040718 | 11 | 26 | 1.6 | 6.4 | 0.00 | 0.00 | 0.00 | 82 | 1024.7 |
| 20260903040225 | 11 | 25 | 1.6 | 6.4 | 0.00 | 0.00 | 0.00 | 81 | 1024.8 |
| 20260903035708 | 11 | 327 | 0.0 | 0.0 | 0.00 | 0.00 | 0.00 | 81 | 1024.6 |
| 20260903035213 | 11 | 157 | 0.0 | 3.2 | 0.00 | 0.00 | 0.00 | 81 | 1024.6 |
| 20260903034722 | 11 | 157 | 0.0 | 3.2 | 0.00 | 0.00 | 0.00 | 81 | 1024.6 |
| 20260903033727 | 12 | 240 | 0.0 | 4.8 | 0.00 | 0.00 | 0.00 | 81 | 1024.7 |
| 20260903033224 | 12 | 250 | 1.6 | 6.4 | 0.00 | 0.00 | 0.00 | 81 | 1024.7 |
| 20260903032226 | 12 | 130 | 1.6 | 6.4 | 0.00 | 0.00 | 0.00 | 81 | 1024.8 |
| 20260903031709 | 12 | 355 | 0.0 | 3.2 | 0.00 | 0.00 | 0.00 | 81 | 1024.8 |
| 20260903031222 | 12 | 117 | 0.0 | 1.6 | 0.00 | 0.00 | 0.00 | 80 | 1024.7 |
| 20260903030720 | 12 | 32 | 0.0 | 0.0 | 0.00 | 0.00 | 0.00 | 80 | 1024.8 |
| 20260903030227 | 12 | 32 | 0.0 | 0.0 | 0.00 | 0.00 | 0.00 | 80 | 1024.9 |
| 20260903025713 | 12 | 32 | 0.0 | 0.0 | 0.00 | 0.00 | 0.00 | 80 | 1024.8 |
| 20260903025227 | 12 | 36 | 0.0 | 0.0 | 0.00 | 0.00 | 0.00 | 79 | 1024.7 |
| 20260903024720 | 12 | 69 | 0.0 | 3.2 | 0.00 | 0.00 | 0.00 | 79 | 1024.8 |
| 20260903024222 | 12 | 69 | 0.0 | 4.8 | 0.00 | 0.00 | 0.00 | 79 | 1024.7 |
| 20260903023719 | 12 | 69 | 1.6 | 8.0 | 0.00 | 0.00 | 0.00 | 79 | 1024.7 |
| 20260903022720 | 12 | 42 | 1.6 | 8.0 | 0.00 | 0.00 | 0.00 | 79 | 1024.7 |
| 20260903022221 | 12 | 0 | 0.0 | 1.6 | 0.00 | 0.00 | 0.00 | 79 | 1024.7 |
| 20260903021718 | 12 | 67 | 0.0 | 4.8 | 0.00 | 0.00 | 0.00 | 78 | 1024.7 |
| 20260903021221 | 13 | 67 | 0.0 | 4.8 | 0.00 | 0.00 | 0.00 | 78 | 1024.7 |
| 20260903020720 | 13 | 67 | 1.6 | 4.8 | 0.00 | 0.00 | 0.00 | 78 | 1024.7 |
| 20260903020246 | 13 | 67 | 0.0 | 0.0 | 0.00 | 0.00 | 0.00 | 78 | 1024.7 |
| 20260903015720 | 13 | 137 | 0.0 | 0.0 | 0.00 | 0.00 | 0.00 | 78 | 1024.7 |
| 20260903015210 | 13 | 229 | 0.0 | 0.0 | 0.00 | 0.00 | 0.00 | 78 | 1024.7 |
| 20260903014722 | 13 | 146 | 0.0 | 0.0 | 0.00 | 0.00 | 0.00 | 78 | 1024.7 |
| 20260903014217 | 13 | 146 | 0.0 | 4.8 | 0.00 | 0.00 | 0.00 | 78 | 1024.8 |
| 20260903013712 | 13 | 86 | 1.6 | 4.8 | 0.00 | 0.00 | 0.00 | 78 | 1024.8 |
| 20260903013221 | 13 | 86 | 1.6 | 4.8 | 0.00 | 0.00 | 0.00 | 77 | 1024.8 |
| 20260903012721 | 13 | 311 | 1.6 | 6.4 | 0.00 | 0.00 | 0.00 | 78 | 1024.8 |
| 20260903012217 | 13 | 59 | 3.2 | 8.0 | 0.00 | 0.00 | 0.00 | 78 | 1024.8 |
| 20260903011710 | 13 | 29 | 3.2 | 12.9 | 0.00 | 0.00 | 0.00 | 77 | 1024.8 |
| 20260903010738 | 13 | 0 | 1.6 | 12.9 | 0.00 | 0.00 | 0.00 | 77 | 1024.7 |
| 20260903005212 | 13 | 5 | 0.0 | 0.0 | 0.00 | 0.00 | 0.00 | 77 | 1024.7 |
| 20260903004716 | 13 | 355 | 0.0 | 0.0 | 0.00 | 0.00 | 0.00 | 77 | 1024.6 |
| 20260903004222 | 13 | 55 | 0.0 | 0.0 | 0.00 | 0.00 | 0.00 | 77 | 1024.6 |
| 20260903003725 | 13 | 55 | 0.0 | 0.0 | 0.00 | 0.00 | 0.00 | 77 | 1024.5 |
| 20260903003231 | 13 | 55 | 0.0 | 4.8 | 0.00 | 0.00 | 0.00 | 77 | 1024.6 |
| 20260903002728 | 13 | 59 | 0.0 | 11.3 | 0.00 | 0.00 | 0.00 | 77 | 1024.5 |
| 20260903001219 | 13 | 5 | 3.2 | 6.4 | 0.00 | 0.00 | 0.00 | 78 | 1024.5 |
| 20260903000722 | 13 | 344 | 1.6 | 8.0 | 0.00 | 0.00 | 0.00 | 79 | 1024.4 |
| 20260903000229 | 13 | 29 | 1.6 | 8.0 | 0.00 | 0.00 | 0.00 | 79 | 1024.5 |
| 20260902235722 | 13 | 11 | 1.6 | 8.0 | 0.00 | 0.00 | 0.00 | 79 | 1024.5 |
| 20260902234216 | 13 | 24 | 0.0 | 0.0 | 0.00 | 0.00 | 0.00 | 80 | 1024.6 |
| 20260902233717 | 13 | 24 | 0.0 | 0.0 | 0.00 | 0.00 | 0.00 | 79 | 1024.6 |
| 20260902233223 | 13 | 0 | 0.0 | 0.0 | 0.00 | 0.00 | 0.00 | 79 | 1024.6 |
| 20260902232715 | 13 | 0 | 0.0 | 0.0 | 0.00 | 0.00 | 0.00 | 79 | 1024.6 |
| 20260902232232 | 13 | 0 | 0.0 | 0.0 | 0.00 | 0.00 | 0.00 | 79 | 1024.6 |
| 20260902231716 | 13 | 0 | 0.0 | 0.0 | 0.00 | 0.00 | 0.00 | 79 | 1024.6 |
| 20260902231225 | 13 | 135 | 0.0 | 0.0 | 0.00 | 0.00 | 0.00 | 79 | 1024.6 |
| 20260902230713 | 13 | 138 | 0.0 | 0.0 | 0.00 | 0.00 | 0.00 | 78 | 1024.5 |
| 20260902230220 | 13 | 138 | 0.0 | 0.0 | 0.00 | 0.00 | 0.00 | 78 | 1024.5 |
| 20260902225723 | 13 | 138 | 0.0 | 0.0 | 0.00 | 0.00 | 0.00 | 77 | 1024.5 |
| 20260902224721 | 13 | 137 | 0.0 | 0.0 | 0.00 | 0.00 | 0.00 | 77 | 1024.5 |
| 20260902223714 | 13 | 355 | 0.0 | 0.0 | 0.00 | 0.00 | 0.00 | 77 | 1024.5 |
| 20260902223225 | 14 | 355 | 0.0 | 0.0 | 0.00 | 0.00 | 0.00 | 77 | 1024.5 |
| 20260902222710 | 14 | 355 | 0.0 | 0.0 | 0.00 | 0.00 | 0.00 | 77 | 1024.5 |
| 20260902222220 | 14 | 355 | 0.0 | 9.7 | 0.00 | 0.00 | 0.00 | 76 | 1024.6 |
| 20260902221731 | 14 | 355 | 0.0 | 9.7 | 0.00 | 0.00 | 0.00 | 76 | 1024.5 |
| 20260902221218 | 14 | 355 | 0.0 | 9.7 | 0.00 | 0.00 | 0.00 | 76 | 1024.6 |
| 20260902220729 | 14 | 5 | 0.0 | 0.0 | 0.00 | 0.00 | 0.00 | 76 | 1024.6 |
| 20260902215717 | 14 | 327 | 0.0 | 0.0 | 0.00 | 0.00 | 0.00 | 75 | 1024.5 |
| 20260902215224 | 14 | 0 | 0.0 | 0.0 | 0.00 | 0.00 | 0.00 | 75 | 1024.5 |
| 20260902214213 | 14 | 0 | 0.0 | 0.0 | 0.00 | 0.00 | 0.00 | 75 | 1024.5 |
| 20260902213210 | 14 | 0 | 0.0 | 0.0 | 0.00 | 0.00 | 0.00 | 73 | 1024.5 |
| 20260902211729 | 15 | 350 | 0.0 | 0.0 | 0.00 | 0.00 | 0.00 | 73 | 1024.4 |
| 20260902210715 | 15 | 350 | 0.0 | 0.0 | 0.00 | 0.00 | 0.00 | 72 | 1024.5 |
| 20260902210222 | 15 | 350 | 0.0 | 0.0 | 0.00 | 0.00 | 0.00 | 72 | 1024.4 |
| 20260902205710 | 15 | 350 | 0.0 | 0.0 | 0.00 | 0.00 | 0.00 | 72 | 1024.5 |
| 20260902205208 | 15 | 350 | 0.0 | 0.0 | 0.00 | 0.00 | 0.00 | 72 | 1024.4 |
| 20260902203718 | 15 | 350 | 0.0 | 0.0 | 0.00 | 0.00 | 0.00 | 71 | 1024.3 |
| 20260902202727 | 15 | 346 | 0.0 | 0.0 | 0.00 | 0.00 | 0.00 | 69 | 1024.0 |
| 20260902202231 | 15 | 355 | 0.0 | 0.0 | 0.00 | 0.00 | 0.00 | 68 | 1024.0 |
| 20260902201716 | 15 | 355 | 0.0 | 0.0 | 0.00 | 0.00 | 0.00 | 68 | 1024.1 |
| 20260902201217 | 16 | 355 | 0.0 | 0.0 | 0.00 | 0.00 | 0.00 | 68 | 1024.1 |
| 20260902200728 | 16 | 355 | 0.0 | 0.0 | 0.00 | 0.00 | 0.00 | 67 | 1024.1 |
| 20260902200241 | 16 | 351 | 0.0 | 0.0 | 0.00 | 0.00 | 0.00 | 66 | 1024.0 |
| 20260902195712 | 16 | 38 | 0.0 | 0.0 | 0.00 | 0.00 | 0.00 | 66 | 1024.0 |
| 20260902195218 | 16 | 328 | 0.0 | 0.0 | 0.00 | 0.00 | 0.00 | 66 | 1023.9 |
| 20260902194710 | 16 | 334 | 0.0 | 0.0 | 0.00 | 0.00 | 0.00 | 65 | 1024.0 |
| 20260902193721 | 16 | 5 | 0.0 | 0.0 | 0.00 | 0.00 | 0.00 | 65 | 1023.9 |
| 20260902193222 | 16 | 0 | 0.0 | 0.0 | 0.00 | 0.00 | 0.00 | 64 | 1023.9 |
| 20260902192730 | 16 | 5 | 0.0 | 0.0 | 0.00 | 0.00 | 0.00 | 64 | 1023.9 |
| 20260902192234 | 16 | 5 | 0.0 | 0.0 | 0.00 | 0.00 | 0.00 | 64 | 1023.8 |
| 20260902191722 | 17 | 5 | 0.0 | 0.0 | 0.00 | 0.00 | 0.00 | 64 | 1023.8 |
| 20260902191214 | 17 | 5 | 0.0 | 0.0 | 0.00 | 0.00 | 0.00 | 64 | 1023.7 |
| 20260902190214 | 17 | 339 | 0.0 | 0.0 | 0.00 | 0.00 | 0.00 | 64 | 1023.7 |
| 20260902185716 | 17 | 26 | 0.0 | 0.0 | 0.00 | 0.00 | 0.00 | 63 | 1023.6 |
| 20260902185225 | 18 | 0 | 0.0 | 0.0 | 0.00 | 0.00 | 0.00 | 62 | 1023.6 |
| 20260902184718 | 18 | 355 | 0.0 | 0.0 | 0.00 | 0.00 | 0.00 | 62 | 1023.5 |
| 20260902184221 | 18 | 74 | 0.0 | 0.0 | 0.00 | 0.00 | 0.00 | 61 | 1023.4 |
| 20260902183728 | 18 | 350 | 0.0 | 0.0 | 0.00 | 0.00 | 0.00 | 61 | 1023.4 |
| 20260902183231 | 19 | 344 | 0.0 | 1.6 | 0.00 | 0.00 | 0.00 | 61 | 1023.4 |
| 20260902182718 | 19 | 345 | 0.0 | 8.0 | 0.00 | 0.00 | 0.00 | 60 | 1023.4 |
| 20260902182223 | 19 | 345 | 0.0 | 8.0 | 0.00 | 0.00 | 0.00 | 60 | 1023.4 |
| 20260902181713 | 19 | 313 | 0.0 | 6.4 | 0.00 | 0.00 | 0.00 | 57 | 1023.2 |
| 20260902180707 | 20 | 71 | 0.0 | 4.8 | 0.00 | 0.00 | 0.00 | 57 | 1023.2 |
| 20260902180219 | 20 | 50 | 0.0 | 4.8 | 0.00 | 0.00 | 0.00 | 57 | 1023.2 |
| 20260902175723 | 20 | 83 | 0.0 | 4.8 | 0.00 | 0.00 | 0.00 | 58 | 1023.2 |
| 20260902175226 | 20 | 330 | 0.0 | 17.7 | 0.00 | 0.00 | 0.00 | 57 | 1023.1 |
| 20260902174227 | 20 | 328 | 3.2 | 17.7 | 0.00 | 0.00 | 0.00 | 56 | 1023.0 |
| 20260902173714 | 20 | 334 | 0.0 | 0.0 | 0.00 | 0.00 | 0.00 | 56 | 1023.0 |
| 20260902173220 | 20 | 333 | 0.0 | 0.0 | 0.00 | 0.00 | 0.00 | 58 | 1022.8 |
| 20260902172722 | 20 | 66 | 0.0 | 0.0 | 0.00 | 0.00 | 0.00 | 56 | 1022.8 |
| 20260902172214 | 20 | 317 | 0.0 | 0.0 | 0.00 | 0.00 | 0.00 | 57 | 1022.7 |
| 20260902171712 | 21 | 344 | 0.0 | 0.0 | 0.00 | 0.00 | 0.00 | 57 | 1022.8 |
| 20260902171220 | 21 | 342 | 0.0 | 0.0 | 0.00 | 0.00 | 0.00 | 56 | 1022.7 |
| 20260902170719 | 21 | 310 | 0.0 | 0.0 | 0.00 | 0.00 | 0.00 | 55 | 1022.7 |
| 20260902170247 | 21 | 310 | 0.0 | 0.0 | 0.00 | 0.00 | 0.00 | 53 | 1022.7 |
| 20260902165715 | 21 | 292 | 0.0 | 0.0 | 0.00 | 0.00 | 0.00 | 52 | 1022.7 |
| 20260902165228 | 22 | 63 | 0.0 | 0.0 | 0.00 | 0.00 | 0.00 | 49 | 1022.6 |
| 20260902164721 | 22 | 24 | 0.0 | 0.0 | 0.00 | 0.00 | 0.00 | 49 | 1022.6 |
| 20260902164211 | 22 | 16 | 0.0 | 0.0 | 0.00 | 0.00 | 0.00 | 49 | 1022.5 |
| 20260902163210 | 22 | 169 | 0.0 | 17.7 | 0.00 | 0.00 | 0.00 | 47 | 1022.6 |
| 20260902162723 | 22 | 90 | 3.2 | 17.7 | 0.00 | 0.00 | 0.00 | 46 | 1022.7 |
| 20260902161716 | 22 | 58 | 1.6 | 14.5 | 0.00 | 0.00 | 0.00 | 47 | 1022.7 |
| 20260902161212 | 23 | 113 | 1.6 | 14.5 | 0.00 | 0.00 | 0.00 | 45 | 1022.7 |
| 20260902160711 | 23 | 197 | 1.6 | 14.5 | 0.00 | 0.00 | 0.00 | 45 | 1022.7 |
| 20260902160245 | 23 | 156 | 1.6 | 19.3 | 0.00 | 0.00 | 0.00 | 44 | 1022.6 |
| 20260902155722 | 23 | 142 | 3.2 | 29.0 | 0.00 | 0.00 | 0.00 | 45 | 1022.7 |
| 20260902154724 | 22 | 196 | 9.7 | 24.1 | 0.00 | 0.00 | 0.00 | 45 | 1022.8 |
| 20260902154220 | 22 | 340 | 6.4 | 24.1 | 0.00 | 0.00 | 0.00 | 46 | 1022.6 |
| 20260902153211 | 22 | 0 | 4.8 | 20.9 | 0.00 | 0.00 | 0.00 | 44 | 1022.7 |
| 20260902151732 | 22 | 25 | 4.8 | 17.7 | 0.00 | 0.00 | 0.00 | 43 | 1022.8 |
| 20260902151218 | 22 | 79 | 6.4 | 17.7 | 0.00 | 0.00 | 0.00 | 42 | 1022.7 |
| 20260902150716 | 23 | 70 | 4.8 | 17.7 | 0.00 | 0.00 | 0.00 | 41 | 1022.7 |
| 20260902150223 | 23 | 19 | 3.2 | 17.7 | 0.00 | 0.00 | 0.00 | 42 | 1022.6 |
| 20260902145709 | 23 | 234 | 6.4 | 17.7 | 0.00 | 0.00 | 0.00 | 40 | 1022.6 |
| 20260902145228 | 23 | 297 | 6.4 | 17.7 | 0.00 | 0.00 | 0.00 | 40 | 1022.6 |
| 20260902144728 | 23 | 314 | 3.2 | 20.9 | 0.00 | 0.00 | 0.00 | 41 | 1022.7 |
| 20260902144221 | 23 | 334 | 6.4 | 20.9 | 0.00 | 0.00 | 0.00 | 40 | 1022.6 |
| 20260902143722 | 23 | 340 | 6.4 | 20.9 | 0.00 | 0.00 | 0.00 | 40 | 1022.8 |
| 20260902143229 | 23 | 295 | 4.8 | 12.9 | 0.00 | 0.00 | 0.00 | 39 | 1022.7 |
| 20260902142716 | 23 | 343 | 4.8 | 12.9 | 0.00 | 0.00 | 0.00 | 40 | 1022.7 |
| 20260902142229 | 23 | 302 | 4.8 | 17.7 | 0.00 | 0.00 | 0.00 | 36 | 1022.8 |
| 20260902141716 | 23 | 320 | 3.2 | 17.7 | 0.00 | 0.00 | 0.00 | 37 | 1022.8 |
| 20260902141217 | 23 | 333 | 6.4 | 22.5 | 0.00 | 0.00 | 0.00 | 36 | 1022.8 |
| 20260902140726 | 23 | 22 | 8.0 | 22.5 | 0.00 | 0.00 | 0.00 | 35 | 1022.7 |
| 20260902140224 | 23 | 124 | 9.7 | 25.7 | 0.00 | 0.00 | 0.00 | 36 | 1022.7 |
| 20260902135213 | 23 | 323 | 8.0 | 25.7 | 0.00 | 0.00 | 0.00 | 39 | 1022.7 |
| 20260902134712 | 23 | 5 | 6.4 | 19.3 | 0.00 | 0.00 | 0.00 | 38 | 1022.8 |
| 20260902134216 | 23 | 299 | 4.8 | 19.3 | 0.00 | 0.00 | 0.00 | 37 | 1022.7 |
| 20260902133706 | 24 | 342 | 4.8 | 19.3 | 0.00 | 0.00 | 0.00 | 35 | 1022.7 |
| 20260902133225 | 24 | 314 | 3.2 | 20.9 | 0.00 | 0.00 | 0.00 | 34 | 1022.7 |
| 20260902132712 | 24 | 79 | 3.2 | 20.9 | 0.00 | 0.00 | 0.00 | 35 | 1022.7 |
| 20260902131224 | 23 | 292 | 1.6 | 14.5 | 0.00 | 0.00 | 0.00 | 34 | 1023.0 |
| 20260902130719 | 23 | 254 | 3.2 | 16.1 | 0.00 | 0.00 | 0.00 | 33 | 1023.0 |
| 20260902125727 | 23 | 62 | 8.0 | 22.5 | 0.00 | 0.00 | 0.00 | 36 | 1023.0 |
| 20260902125235 | 23 | 344 | 11.3 | 22.5 | 0.00 | 0.00 | 0.00 | 35 | 1023.0 |
| 20260902124711 | 23 | 278 | 8.0 | 17.7 | 0.00 | 0.00 | 0.00 | 37 | 1023.1 |
| 20260902124210 | 23 | 328 | 6.4 | 22.5 | 0.00 | 0.00 | 0.00 | 42 | 1023.2 |
| 20260902123718 | 23 | 326 | 6.4 | 22.5 | 0.00 | 0.00 | 0.00 | 41 | 1023.1 |
| 20260902123218 | 23 | 102 | 8.0 | 22.5 | 0.00 | 0.00 | 0.00 | 41 | 1023.1 |
| 20260902122720 | 23 | 348 | 8.0 | 19.3 | 0.00 | 0.00 | 0.00 | 42 | 1023.0 |
| 20260902122224 | 23 | 298 | 8.0 | 19.3 | 0.00 | 0.00 | 0.00 | 44 | 1023.0 |
| 20260902121718 | 23 | 333 | 3.2 | 14.5 | 0.00 | 0.00 | 0.00 | 44 | 1023.0 |
| 20260902121208 | 24 | 248 | 1.6 | 16.1 | 0.00 | 0.00 | 0.00 | 41 | 1023.0 |
| 20260902120723 | 24 | 334 | 4.8 | 16.1 | 0.00 | 0.00 | 0.00 | 45 | 1023.1 |
| 20260902120222 | 23 | 340 | 3.2 | 12.9 | 0.00 | 0.00 | 0.00 | 45 | 1023.1 |
| 20260902115726 | 23 | 151 | 1.6 | 12.9 | 0.00 | 0.00 | 0.00 | 45 | 1023.0 |
| 20260902115220 | 23 | 344 | 1.6 | 17.7 | 0.00 | 0.00 | 0.00 | 47 | 1023.0 |
| 20260902114722 | 22 | 339 | 3.2 | 17.7 | 0.00 | 0.00 | 0.00 | 47 | 1023.1 |
| 20260902114227 | 22 | 109 | 6.4 | 17.7 | 0.00 | 0.00 | 0.00 | 49 | 1023.1 |
| 20260902113721 | 22 | 329 | 6.4 | 17.7 | 0.00 | 0.00 | 0.00 | 49 | 1023.1 |
| 20260902113209 | 22 | 333 | 4.8 | 17.7 | 0.00 | 0.00 | 0.00 | 49 | 1023.2 |
| 20260902111728 | 22 | 322 | 4.8 | 14.5 | 0.00 | 0.00 | 0.00 | 51 | 1023.2 |
| 20260902111217 | 22 | 284 | 4.8 | 14.5 | 0.00 | 0.00 | 0.00 | 51 | 1023.3 |
| 20260902110714 | 22 | 333 | 6.4 | 16.1 | 0.00 | 0.00 | 0.00 | 51 | 1023.3 |
| 20260902104718 | 22 | 275 | 1.6 | 9.7 | 0.00 | 0.00 | 0.00 | 48 | 1023.3 |
| 20260902103722 | 22 | 337 | 1.6 | 9.7 | 0.00 | 0.00 | 0.00 | 48 | 1023.4 |
| 20260902102719 | 22 | 183 | 1.6 | 8.0 | 0.00 | 0.00 | 0.00 | 50 | 1023.4 |
| 20260902102211 | 21 | 175 | 0.0 | 0.0 | 0.00 | 0.00 | 0.00 | 53 | 1023.4 |
| 20260902101213 | 21 | 5 | 1.6 | 9.7 | 0.00 | 0.00 | 0.00 | 52 | 1023.5 |
| 20260902100736 | 21 | 249 | 4.8 | 9.7 | 0.00 | 0.00 | 0.00 | 52 | 1023.4 |
| 20260902100215 | 21 | 121 | 3.2 | 9.7 | 0.00 | 0.00 | 0.00 | 52 | 1023.5 |
| 20260902095720 | 21 | 169 | 1.6 | 9.7 | 0.00 | 0.00 | 0.00 | 51 | 1023.4 |
| 20260902095226 | 21 | 142 | 3.2 | 11.3 | 0.00 | 0.00 | 0.00 | 53 | 1023.5 |
| 20260902094731 | 21 | 160 | 3.2 | 11.3 | 0.00 | 0.00 | 0.00 | 54 | 1023.5 |
| 20260902094221 | 21 | 230 | 3.2 | 11.3 | 0.00 | 0.00 | 0.00 | 53 | 1023.5 |
| 20260902093720 | 21 | 169 | 1.6 | 11.3 | 0.00 | 0.00 | 0.00 | 55 | 1023.6 |
| 20260902093209 | 21 | 180 | 1.6 | 12.9 | 0.00 | 0.00 | 0.00 | 54 | 1023.5 |
| 20260902092709 | 20 | 187 | 4.8 | 12.9 | 0.00 | 0.00 | 0.00 | 54 | 1023.5 |
| 20260902092235 | 20 | 163 | 4.8 | 11.3 | 0.00 | 0.00 | 0.00 | 55 | 1023.5 |
| 20260902091717 | 20 | 173 | 3.2 | 9.7 | 0.00 | 0.00 | 0.00 | 56 | 1023.5 |
| 20260902091215 | 20 | 131 | 3.2 | 9.7 | 0.00 | 0.00 | 0.00 | 57 | 1023.5 |
| 20260902090722 | 20 | 172 | 3.2 | 9.7 | 0.00 | 0.00 | 0.00 | 57 | 1023.6 |
| 20260902090227 | 19 | 113 | 1.6 | 6.4 | 0.00 | 0.00 | 0.00 | 57 | 1023.5 |
| 20260902085720 | 20 | 175 | 0.0 | 0.0 | 0.00 | 0.00 | 0.00 | 58 | 1023.6 |
| 20260902084212 | 19 | 163 | 0.0 | 0.0 | 0.00 | 0.00 | 0.00 | 61 | 1023.4 |
| 20260902083716 | 19 | 173 | 0.0 | 0.0 | 0.00 | 0.00 | 0.00 | 65 | 1023.5 |
| 20260902083227 | 18 | 151 | 0.0 | 0.0 | 0.00 | 0.00 | 0.00 | 69 | 1023.5 |
| 20260902082733 | 18 | 205 | 0.0 | 0.0 | 0.00 | 0.00 | 0.00 | 70 | 1023.5 |
| 20260902082220 | 17 | 153 | 0.0 | 0.0 | 0.00 | 0.00 | 0.00 | 72 | 1023.4 |
| 20260902081723 | 17 | 164 | 0.0 | 0.0 | 0.00 | 0.00 | 0.00 | 72 | 1023.3 |
| 20260902081224 | 17 | 178 | 0.0 | 0.0 | 0.00 | 0.00 | 0.00 | 72 | 1023.1 |
| 20260902080719 | 17 | 240 | 0.0 | 0.0 | 0.00 | 0.00 | 0.00 | 72 | 1023.2 |
| 20260902080227 | 17 | 240 | 0.0 | 0.0 | 0.00 | 0.00 | 0.00 | 69 | 1023.3 |
| 20260902075226 | 17 | 223 | 0.0 | 0.0 | 0.00 | 0.00 | 0.00 | 70 | 1023.1 |
| 20260902074725 | 17 | 223 | 0.0 | 0.0 | 0.00 | 0.00 | 0.00 | 69 | 1023.0 |
| 20260902073728 | 17 | 248 | 0.0 | 0.0 | 0.00 | 0.00 | 0.00 | 72 | 1023.1 |
| 20260902073216 | 16 | 176 | 0.0 | 0.0 | 0.00 | 0.00 | 0.00 | 71 | 1023.1 |
| 20260902072223 | 16 | 176 | 0.0 | 0.0 | 0.00 | 0.00 | 0.00 | 77 | 1022.8 |
| 20260902071718 | 15 | 124 | 0.0 | 0.0 | 0.00 | 0.00 | 0.00 | 77 | 1022.8 |
| 20260902071219 | 15 | 124 | 0.0 | 0.0 | 0.00 | 0.00 | 0.00 | 78 | 1023.0 |
| 20260902070721 | 14 | 124 | 0.0 | 0.0 | 0.00 | 0.00 | 0.00 | 79 | 1023.1 |
| 20260902070213 | 14 | 124 | 0.0 | 0.0 | 0.00 | 0.00 | 0.00 | 79 | 1023.1 |
| 20260902065717 | 13 | 124 | 0.0 | 0.0 | 0.00 | 0.00 | 0.00 | 81 | 1023.1 |
| 20260902065218 | 13 | 115 | 0.0 | 0.0 | 0.00 | 0.00 | 0.00 | 84 | 1023.2 |
| 20260902064717 | 12 | 115 | 0.0 | 0.0 | 0.00 | 0.00 | 0.00 | 84 | 1023.2 |
| 20260902064215 | 12 | 134 | 0.0 | 0.0 | 0.00 | 0.00 | 0.00 | 84 | 1023.1 |
| 20260902063720 | 12 | 130 | 0.0 | 0.0 | 0.00 | 0.00 | 0.00 | 84 | 1023.1 |
| 20260902063224 | 12 | 84 | 0.0 | 0.0 | 0.00 | 0.00 | 0.00 | 84 | 1023.1 |
| 20260902062210 | 12 | 144 | 0.0 | 0.0 | 0.00 | 0.00 | 0.00 | 85 | 1023.0 |
| 20260902061225 | 12 | 144 | 0.0 | 0.0 | 0.00 | 0.00 | 0.00 | 84 | 1023.1 |
| 20260902060723 | 11 | 144 | 0.0 | 0.0 | 0.00 | 0.00 | 0.00 | 85 | 1023.1 |
| 20260902060223 | 11 | 144 | 0.0 | 0.0 | 0.00 | 0.00 | 0.00 | 84 | 1023.2 |
| 20260902055723 | 11 | 329 | 0.0 | 0.0 | 0.00 | 0.00 | 0.00 | 85 | 1023.2 |
| 20260902055219 | 11 | 327 | 0.0 | 0.0 | 0.00 | 0.00 | 0.00 | 85 | 1023.2 |